Simultaneous Nadir Overpasses (SNOs) Predictions

Prediction of SNOs between GOES-16 and METOP-B Satellite Orbit:

Table of predicted SNOs for the next 14.0 days since TLE Epoch: 2/22/2020
Index Date Time (GOES-16) GOES-16 Lat,Lon METOP-B Lat,Lon Distance(km) Time Diff (sec)
1 02/23/2020 02:37:05 0.02, -75.15 -0.35, -76.93 202.79 80
2 02/24/2020 02:19:05 0.01, -75.15 0.74, -71.93 366.38 80
3 02/25/2020 14:35:18 -0.02, -75.16 0.29, -76.49 151.84 80
4 02/26/2020 14:17:19 -0.01, -75.17 -0.86, -71.51 417.70 80
5 02/28/2020 02:33:40 0.02, -75.16 -0.19, -76.10 106.90 80
6 02/29/2020 02:15:40 0.02, -75.17 0.90, -71.10 462.90 80
7 03/01/2020 14:31:53 -0.03, -75.19 0.06, -75.67 54.64 80
8 03/04/2020 02:30:14 0.03, -75.19 -0.01, -75.27 9.48 80
9 03/06/2020 14:31:08 -0.04, -75.23 -0.11, -74.84 43.94 80




NCC Satellite Simultaneous Nadir Overpasses (SNOs) Prediction Service
